Time,TemperatureF,DewpointF,PressureIn,WindDirection,WindDirectionDegrees,WindSpeedMPH,WindSpeedGustMPH,Humidity,HourlyPrecipIn,Conditions,Clouds,dailyrainin,SoftwareType,DateUTC
2013-02-07 00:00:00,52.2,36.5,30.12,East,89,0.0,0.0,55,0.00,,,0.00,Wunderground v.1.15,2013-02-07 05:00:00,
2013-02-07 00:05:00,52.2,36.0,30.12,East,85,0.0,0.0,54,0.00,,,0.00,Wunderground v.1.15,2013-02-07 05:05:00,
2013-02-07 00:10:00,52.1,36.4,30.12,East,85,0.0,0.0,55,0.00,,,0.00,Wunderground v.1.15,2013-02-07 05:10:00,
2013-02-07 00:15:00,52.0,36.3,30.12,East,85,0.0,0.0,55,0.00,,,0.00,Wunderground v.1.15,2013-02-07 05:15:00,
2013-02-07 00:25:00,51.5,36.3,30.11,East,83,0.0,0.0,56,0.00,,,0.00,Wunderground v.1.15,2013-02-07 05:25:00,
2013-02-07 00:30:00,51.5,36.3,30.11,East,82,0.0,1.0,56,0.00,,,0.00,Wunderground v.1.15,2013-02-07 05:30:00,
2013-02-07 00:35:00,51.2,36.0,30.11,East,82,0.0,1.0,56,0.00,,,0.00,Wunderground v.1.15,2013-02-07 05:35:00,
2013-02-07 00:40:00,51.3,35.7,30.11,East,94,0.0,0.0,55,0.00,,,0.00,Wunderground v.1.15,2013-02-07 05:40:00,
2013-02-07 00:45:00,51.3,35.7,30.12,East,83,1.0,1.0,55,0.00,,,0.00,Wunderground v.1.15,2013-02-07 05:45:00,
2013-02-07 00:50:00,51.0,35.8,30.12,ENE,76,0.0,0.0,56,0.00,,,0.00,Wunderground v.1.15,2013-02-07 05:50:00,
2013-02-07 01:00:00,50.6,35.9,30.12,ENE,78,0.0,0.0,57,0.00,,,0.00,Wunderground v.1.15,2013-02-07 06:00:00,
2013-02-07 01:05:00,50.4,35.7,30.12,ENE,78,0.0,0.0,57,0.00,,,0.00,Wunderground v.1.15,2013-02-07 06:05:00,
2013-02-07 01:15:00,50.4,36.2,30.12,ENE,78,0.0,0.0,58,0.00,,,0.00,Wunderground v.1.15,2013-02-07 06:15:00,
2013-02-07 01:20:00,50.3,36.1,30.12,ENE,78,0.0,0.0,58,0.00,,,0.00,Wunderground v.1.15,2013-02-07 06:20:00,
2013-02-07 01:30:00,49.8,36.0,30.12,ENE,73,0.0,0.0,59,0.00,,,0.00,Wunderground v.1.15,2013-02-07 06:30:00,
2013-02-07 01:35:00,49.5,36.2,30.11,ENE,73,0.0,0.0,60,0.00,,,0.00,Wunderground v.1.15,2013-02-07 06:35:00,
2013-02-07 01:40:00,49.2,36.3,30.11,ENE,73,0.0,0.0,61,0.00,,,0.00,Wunderground v.1.15,2013-02-07 06:40:00,
2013-02-07 01:45:00,49.0,36.5,30.10,ENE,61,0.0,0.0,62,0.00,,,0.00,Wunderground v.1.15,2013-02-07 06:45:00,
2013-02-07 01:50:00,48.9,36.4,30.11,ENE,61,0.0,0.0,62,0.00,,,0.00,Wunderground v.1.15,2013-02-07 06:50:00,
2013-02-07 01:55:00,48.7,36.7,30.10,ENE,61,0.0,0.0,63,0.00,,,0.00,Wunderground v.1.15,2013-02-07 06:55:00,
2013-02-07 02:05:00,48.6,37.0,30.11,ENE,75,0.0,0.0,64,0.00,,,0.00,Wunderground v.1.15,2013-02-07 07:05:00,
2013-02-07 02:15:00,48.1,37.3,30.11,ENE,75,0.0,0.0,66,0.00,,,0.00,Wunderground v.1.15,2013-02-07 07:15:00,
2013-02-07 02:20:00,48.1,37.7,30.11,ENE,75,0.0,0.0,67,0.00,,,0.00,Wunderground v.1.15,2013-02-07 07:20:00,
2013-02-07 02:25:00,48.1,37.7,30.11,East,83,0.0,0.0,67,0.00,,,0.00,Wunderground v.1.15,2013-02-07 07:25:00,
2013-02-07 02:35:00,48.1,38.0,30.11,East,83,0.0,0.0,68,0.00,,,0.00,Wunderground v.1.15,2013-02-07 07:35:00,
2013-02-07 02:40:00,47.7,38.0,30.11,ENE,65,0.0,0.0,69,0.00,,,0.00,Wunderground v.1.15,2013-02-07 07:40:00,
2013-02-07 02:45:00,47.5,38.2,30.11,ENE,65,0.0,0.0,70,0.00,,,0.00,Wunderground v.1.15,2013-02-07 07:45:00,
2013-02-07 02:50:00,47.6,38.3,30.11,ENE,65,0.0,0.0,70,0.00,,,0.00,Wunderground v.1.15,2013-02-07 07:50:00,
2013-02-07 02:55:00,47.6,38.7,30.11,ENE,65,0.0,0.0,71,0.00,,,0.00,Wunderground v.1.15,2013-02-07 07:55:00,
2013-02-07 03:00:00,47.5,38.9,30.11,ENE,69,0.0,0.0,72,0.00,,,0.00,Wunderground v.1.15,2013-02-07 08:00:00,
2013-02-07 03:05:00,47.4,38.8,30.11,ENE,69,0.0,0.0,72,0.00,,,0.00,Wunderground v.1.15,2013-02-07 08:05:00,
2013-02-07 03:15:00,47.2,39.3,30.11,ENE,69,0.0,0.0,74,0.00,,,0.00,Wunderground v.1.15,2013-02-07 08:15:00,
2013-02-07 03:20:00,47.1,39.2,30.11,ENE,69,0.0,0.0,74,0.00,,,0.00,Wunderground v.1.15,2013-02-07 08:20:00,
2013-02-07 03:25:00,47.0,39.5,30.11,ENE,69,0.0,0.0,75,0.00,,,0.00,Wunderground v.1.15,2013-02-07 08:25:00,
2013-02-07 03:30:00,46.9,39.4,30.11,ENE,69,0.0,0.0,75,0.00,,,0.00,Wunderground v.1.15,2013-02-07 08:30:00,
2013-02-07 03:35:00,46.8,39.3,30.11,ENE,75,0.0,0.0,75,0.00,,,0.00,Wunderground v.1.15,2013-02-07 08:35:00,
2013-02-07 03:45:00,46.7,39.5,30.12,ENE,75,0.0,0.0,76,0.00,,,0.00,Wunderground v.1.15,2013-02-07 08:45:00,
2013-02-07 03:50:00,46.6,39.4,30.13,ENE,75,0.0,0.0,76,0.00,,,0.00,Wunderground v.1.15,2013-02-07 08:50:00,
2013-02-07 03:55:00,46.5,39.3,30.13,ENE,75,0.0,0.0,76,0.00,,,0.00,Wunderground v.1.15,2013-02-07 08:55:00,
2013-02-07 04:00:00,46.5,39.7,30.13,ENE,75,0.0,0.0,77,0.00,,,0.00,Wunderground v.1.15,2013-02-07 09:00:00,
2013-02-07 04:05:00,46.4,39.6,30.13,ENE,75,0.0,0.0,77,0.00,,,0.00,Wunderground v.1.15,2013-02-07 09:05:00,
2013-02-07 04:15:00,46.5,40.0,30.14,ENE,74,0.0,0.0,78,0.00,,,0.00,Wunderground v.1.15,2013-02-07 09:15:00,
2013-02-07 04:20:00,46.5,40.3,30.14,ENE,74,0.0,0.0,79,0.00,,,0.00,Wunderground v.1.15,2013-02-07 09:20:00,
2013-02-07 04:25:00,46.6,40.4,30.14,ENE,74,0.0,0.0,79,0.00,,,0.00,Wunderground v.1.15,2013-02-07 09:25:00,
2013-02-07 04:30:00,46.5,40.3,30.14,ENE,74,0.0,0.0,79,0.00,,,0.00,Wunderground v.1.15,2013-02-07 09:30:00,
2013-02-07 04:35:00,46.5,40.7,30.14,ENE,74,0.0,0.0,80,0.00,,,0.00,Wunderground v.1.15,2013-02-07 09:35:00,
2013-02-07 04:40:00,46.5,40.7,30.14,ENE,74,0.0,0.0,80,0.00,,,0.00,Wunderground v.1.15,2013-02-07 09:40:00,
2013-02-07 04:50:00,46.5,41.0,30.14,ENE,75,0.0,0.0,81,0.00,,,0.00,Wunderground v.1.15,2013-02-07 09:50:00,
2013-02-07 04:55:00,46.5,41.0,30.14,East,79,0.0,0.0,81,0.00,,,0.00,Wunderground v.1.15,2013-02-07 09:55:00,
2013-02-07 05:00:00,46.4,40.9,30.14,East,80,0.0,0.0,81,0.00,,,0.00,Wunderground v.1.15,2013-02-07 10:00:00,
2013-02-07 05:05:00,46.4,40.9,30.14,East,79,0.0,0.0,81,0.00,,,0.00,Wunderground v.1.15,2013-02-07 10:05:00,
2013-02-07 05:15:00,46.3,41.1,30.14,NE,56,0.0,0.0,82,0.00,,,0.00,Wunderground v.1.15,2013-02-07 10:15:00,
2013-02-07 05:25:00,46.2,41.0,30.14,ENE,58,0.0,1.0,82,0.00,,,0.00,Wunderground v.1.15,2013-02-07 10:25:00,
2013-02-07 05:30:00,46.1,41.2,30.13,ENE,58,0.0,0.0,83,0.00,,,0.00,Wunderground v.1.15,2013-02-07 10:30:00,
2013-02-07 05:35:00,46.1,41.2,30.13,ENE,58,0.0,0.0,83,0.00,,,0.00,Wunderground v.1.15,2013-02-07 10:35:00,
2013-02-07 05:40:00,46.1,41.5,30.13,ENE,58,0.0,0.0,84,0.00,,,0.00,Wunderground v.1.15,2013-02-07 10:40:00,
2013-02-07 05:45:00,46.1,41.5,30.13,ENE,58,0.0,0.0,84,0.00,,,0.00,Wunderground v.1.15,2013-02-07 10:45:00,
2013-02-07 05:55:00,46.1,41.8,30.13,ENE,75,0.0,0.0,85,0.00,,,0.00,Wunderground v.1.15,2013-02-07 10:55:00,
2013-02-07 06:00:00,46.2,41.9,30.13,ENE,75,0.0,0.0,85,0.00,,,0.00,Wunderground v.1.15,2013-02-07 11:00:00,
2013-02-07 06:05:00,46.2,41.9,30.13,ENE,68,0.0,0.0,85,0.00,,,0.00,Wunderground v.1.15,2013-02-07 11:05:00,
2013-02-07 06:15:00,46.3,42.3,30.12,ENE,68,0.0,0.0,86,0.00,,,0.00,Wunderground v.1.15,2013-02-07 11:15:00,
2013-02-07 06:20:00,46.4,42.4,30.12,ENE,68,0.0,0.0,86,0.00,,,0.00,Wunderground v.1.15,2013-02-07 11:20:00,
2013-02-07 06:30:00,46.6,42.6,30.12,ENE,74,0.0,0.0,86,0.00,,,0.00,Wunderground v.1.15,2013-02-07 11:30:00,
2013-02-07 06:35:00,46.6,42.6,30.13,ENE,74,0.0,0.0,86,0.00,,,0.00,Wunderground v.1.15,2013-02-07 11:35:00,
2013-02-07 06:40:00,46.7,42.7,30.13,ENE,74,0.0,0.0,86,0.00,,,0.00,Wunderground v.1.15,2013-02-07 11:40:00,
2013-02-07 06:45:00,46.7,42.7,30.12,ENE,74,0.0,0.0,86,0.00,,,0.00,Wunderground v.1.15,2013-02-07 11:45:00,
2013-02-07 06:50:00,46.7,42.7,30.12,ENE,74,0.0,0.0,86,0.00,,,0.00,Wunderground v.1.15,2013-02-07 11:50:00,
2013-02-07 06:55:00,46.8,42.8,30.12,ENE,75,0.0,0.0,86,0.00,,,0.00,Wunderground v.1.15,2013-02-07 11:55:00,
2013-02-07 07:05:00,46.9,42.9,30.12,East,79,0.0,0.0,86,0.00,,,0.00,Wunderground v.1.15,2013-02-07 12:05:00,
2013-02-07 07:15:00,46.9,43.2,30.12,ENE,77,0.0,0.0,87,0.00,,,0.00,Wunderground v.1.15,2013-02-07 12:15:00,
2013-02-07 07:20:00,47.0,43.3,30.12,ENE,77,0.0,2.0,87,0.00,,,0.00,Wunderground v.1.15,2013-02-07 12:20:00,
2013-02-07 07:25:00,47.1,43.4,30.12,ENE,67,0.0,2.0,87,0.00,,,0.00,Wunderground v.1.15,2013-02-07 12:25:00,
2013-02-07 07:30:00,47.3,43.6,30.11,ENE,58,0.0,0.0,87,0.00,,,0.00,Wunderground v.1.15,2013-02-07 12:30:00,
2013-02-07 07:35:00,47.4,43.7,30.12,East,94,0.0,0.0,87,0.00,,,0.00,Wunderground v.1.15,2013-02-07 12:35:00,
2013-02-07 07:40:00,47.6,43.9,30.12,East,82,1.0,1.0,87,0.00,,,0.00,Wunderground v.1.15,2013-02-07 12:40:00,
2013-02-07 07:45:00,47.7,44.0,30.11,NNE,25,1.0,1.0,87,0.00,,,0.00,Wunderground v.1.15,2013-02-07 12:45:00,
2013-02-07 07:50:00,47.9,44.2,30.11,NE,54,0.0,0.0,87,0.00,,,0.00,Wunderground v.1.15,2013-02-07 12:50:00,
2013-02-07 07:55:00,48.1,44.4,30.11,East,89,0.0,0.0,87,0.00,,,0.00,Wunderground v.1.15,2013-02-07 12:55:00,
2013-02-07 08:00:00,48.2,44.5,30.11,ENE,59,0.0,1.0,87,0.00,,,0.00,Wunderground v.1.15,2013-02-07 13:00:00,
2013-02-07 08:05:00,48.3,44.6,30.11,NE,34,0.0,1.0,87,0.00,,,0.00,Wunderground v.1.15,2013-02-07 13:05:00,
2013-02-07 08:15:00,48.5,44.8,30.11,ENE,67,1.0,1.0,87,0.00,,,0.00,Wunderground v.1.15,2013-02-07 13:15:00,
2013-02-07 08:20:00,48.6,44.6,30.11,NE,55,1.0,1.0,86,0.00,,,0.00,Wunderground v.1.15,2013-02-07 13:20:00,
2013-02-07 08:25:00,48.7,44.7,30.11,ENE,59,0.0,1.0,86,0.00,,,0.00,Wunderground v.1.15,2013-02-07 13:25:00,
2013-02-07 08:30:00,48.8,44.8,30.11,NE,50,0.0,0.0,86,0.00,,,0.00,Wunderground v.1.15,2013-02-07 13:30:00,
2013-02-07 08:35:00,48.9,44.9,30.11,ENE,71,1.0,1.0,86,0.00,,,0.00,Wunderground v.1.15,2013-02-07 13:35:00,
2013-02-07 08:45:00,49.1,45.1,30.12,NE,38,0.0,0.0,86,0.00,,,0.00,Wunderground v.1.15,2013-02-07 13:45:00,
2013-02-07 08:50:00,49.3,45.3,30.12,ENE,75,0.0,0.0,86,0.00,,,0.00,Wunderground v.1.15,2013-02-07 13:50:00,
2013-02-07 08:55:00,49.4,45.1,30.12,ENE,72,0.0,1.0,85,0.00,,,0.00,Wunderground v.1.15,2013-02-07 13:55:00,
2013-02-07 09:00:00,49.5,45.2,30.11,NNE,25,1.0,1.0,85,0.00,,,0.00,Wunderground v.1.15,2013-02-07 14:00:00,
2013-02-07 09:05:00,49.6,45.3,30.11,East,82,1.0,1.0,85,0.00,,,0.00,Wunderground v.1.15,2013-02-07 14:05:00,
2013-02-07 09:15:00,49.8,45.5,30.12,ENE,60,1.0,1.0,85,0.00,,,0.00,Wunderground v.1.15,2013-02-07 14:15:00,
2013-02-07 09:20:00,49.9,45.6,30.12,NE,46,1.0,1.0,85,0.00,,,0.00,Wunderground v.1.15,2013-02-07 14:20:00,
2013-02-07 09:25:00,49.9,45.6,30.11,NE,48,1.0,2.0,85,0.00,,,0.00,Wunderground v.1.15,2013-02-07 14:25:00,
2013-02-07 09:30:00,50.0,45.7,30.11,North,11,1.0,6.0,85,0.00,,,0.00,Wunderground v.1.15,2013-02-07 14:30:00,
2013-02-07 09:35:00,50.1,45.8,30.10,NNE,16,2.0,6.0,85,0.00,,,0.00,Wunderground v.1.15,2013-02-07 14:35:00,
2013-02-07 09:40:00,50.2,45.9,30.10,NNE,16,2.0,4.0,85,0.00,,,0.00,Wunderground v.1.15,2013-02-07 14:40:00,
2013-02-07 09:50:00,50.5,46.2,30.11,NNE,32,1.0,1.0,85,0.00,,,0.00,Wunderground v.1.15,2013-02-07 14:50:00,
2013-02-07 09:55:00,50.5,46.2,30.11,NNE,32,1.0,2.0,85,0.00,,,0.00,Wunderground v.1.15,2013-02-07 14:55:00,
2013-02-07 10:00:00,50.6,46.6,30.11,NNE,28,1.0,1.0,86,0.00,,,0.00,Wunderground v.1.15,2013-02-07 15:00:00,
2013-02-07 10:05:00,50.5,46.5,30.11,NE,42,1.0,1.0,86,0.00,,,0.00,Wunderground v.1.15,2013-02-07 15:05:00,
2013-02-07 10:15:00,50.4,46.7,30.11,NE,42,0.0,1.0,87,0.00,,,0.00,Wunderground v.1.15,2013-02-07 15:15:00,
2013-02-07 10:25:00,50.2,46.5,30.11,NE,40,0.0,0.0,87,0.00,,,0.00,Wunderground v.1.15,2013-02-07 15:25:00,
2013-02-07 10:30:00,50.0,46.6,30.11,NE,40,0.0,0.0,88,0.00,,,0.01,Wunderground v.1.15,2013-02-07 15:30:00,
2013-02-07 10:35:00,49.9,46.5,30.11,NNE,29,1.0,1.0,88,0.00,,,0.01,Wunderground v.1.15,2013-02-07 15:35:00,
2013-02-07 10:40:00,49.7,46.6,30.11,ENE,57,0.0,0.0,89,0.00,,,0.01,Wunderground v.1.15,2013-02-07 15:40:00,
2013-02-07 10:45:00,49.6,46.5,30.11,ENE,57,0.0,0.0,89,0.04,,,0.02,Wunderground v.1.15,2013-02-07 15:45:00,
2013-02-07 10:55:00,49.2,46.4,30.11,NE,35,1.0,1.0,90,0.04,,,0.02,Wunderground v.1.15,2013-02-07 15:55:00,
2013-02-07 11:00:00,49.0,46.5,30.11,ENE,69,1.0,1.0,91,0.00,,,0.02,Wunderground v.1.15,2013-02-07 16:00:00,
2013-02-07 11:05:00,48.8,46.6,30.11,NNE,21,1.0,1.0,92,0.00,,,0.03,Wunderground v.1.15,2013-02-07 16:05:00,
2013-02-07 11:15:00,48.8,46.6,30.11,NNE,21,1.0,1.0,92,0.00,,,0.03,Wunderground v.1.15,2013-02-07 16:15:00,
2013-02-07 11:20:00,48.7,46.5,30.11,North,11,1.0,2.0,92,0.00,,,0.03,Wunderground v.1.15,2013-02-07 16:20:00,
2013-02-07 11:30:00,48.6,46.7,30.10,North,2,1.0,1.0,93,0.00,,,0.04,Wunderground v.1.15,2013-02-07 16:30:00,
2013-02-07 11:35:00,48.6,46.7,30.10,North,11,1.0,1.0,93,0.00,,,0.04,Wunderground v.1.15,2013-02-07 16:35:00,
2013-02-07 11:40:00,48.7,46.8,30.10,North,11,1.0,1.0,93,0.00,,,0.04,Wunderground v.1.15,2013-02-07 16:40:00,
2013-02-07 11:45:00,48.6,46.7,30.10,North,11,1.0,1.0,93,0.04,,,0.05,Wunderground v.1.15,2013-02-07 16:45:00,
2013-02-07 11:50:00,48.6,46.7,30.10,North,11,1.0,1.0,93,0.04,,,0.05,Wunderground v.1.15,2013-02-07 16:50:00,
2013-02-07 12:00:00,48.7,47.1,30.09,NE,40,1.0,1.0,94,0.00,,,0.05,Wunderground v.1.15,2013-02-07 17:00:00,
2013-02-07 12:05:00,48.8,47.2,30.08,North,11,1.0,1.0,94,0.00,,,0.05,Wunderground v.1.15,2013-02-07 17:05:00,
2013-02-07 12:15:00,49.2,47.5,30.08,North,11,1.0,1.0,94,0.00,,,0.06,Wunderground v.1.15,2013-02-07 17:15:00,
2013-02-07 12:20:00,49.2,47.8,30.08,NE,56,1.0,1.0,95,0.00,,,0.06,Wunderground v.1.15,2013-02-07 17:20:00,
2013-02-07 12:25:00,48.8,47.2,30.08,NE,38,1.0,1.0,94,0.00,,,0.06,Wunderground v.1.15,2013-02-07 17:25:00,
2013-02-07 12:35:00,48.7,47.1,30.08,NNE,16,1.0,1.0,94,0.00,,,0.07,Wunderground v.1.15,2013-02-07 17:35:00,
2013-02-07 12:40:00,48.8,47.2,30.08,NNE,29,1.0,1.0,94,0.00,,,0.07,Wunderground v.1.15,2013-02-07 17:40:00,
2013-02-07 12:45:00,49.0,47.6,30.08,NNE,29,1.0,1.0,95,0.06,,,0.08,Wunderground v.1.15,2013-02-07 17:45:00,
2013-02-07 12:50:00,49.0,47.6,30.08,NNE,29,1.0,1.0,95,0.10,,,0.09,Wunderground v.1.15,2013-02-07 17:50:00,
2013-02-07 12:55:00,48.8,47.4,30.07,NNE,27,1.0,1.0,95,0.09,,,0.10,Wunderground v.1.15,2013-02-07 17:55:00,
2013-02-07 13:00:00,48.8,47.4,30.06,NNE,21,1.0,1.0,95,0.09,,,0.10,Wunderground v.1.15,2013-02-07 18:00:00,
2013-02-07 13:05:00,48.9,47.5,30.05,NNE,25,1.0,1.0,95,0.08,,,0.11,Wunderground v.1.15,2013-02-07 18:05:00,
2013-02-07 13:15:00,48.9,47.5,30.03,NNE,16,1.0,1.0,95,0.09,,,0.12,Wunderground v.1.15,2013-02-07 18:15:00,
2013-02-07 13:20:00,48.9,47.5,30.04,NE,42,1.0,3.0,95,0.07,,,0.13,Wunderground v.1.15,2013-02-07 18:20:00,
2013-02-07 13:25:00,48.8,47.4,30.04,NNE,16,1.0,3.0,95,0.07,,,0.13,Wunderground v.1.15,2013-02-07 18:25:00,
2013-02-07 13:30:00,48.7,47.3,30.03,NNE,26,1.0,1.0,95,0.09,,,0.14,Wunderground v.1.15,2013-02-07 18:30:00,
2013-02-07 13:35:00,48.5,47.1,30.03,NNE,28,2.0,3.0,95,0.12,,,0.15,Wunderground v.1.15,2013-02-07 18:35:00,
2013-02-07 13:45:00,48.4,47.0,30.03,NNE,21,2.0,2.0,95,0.15,,,0.18,Wunderground v.1.15,2013-02-07 18:45:00,
2013-02-07 13:50:00,48.4,47.0,30.02,NNE,21,2.0,3.0,95,0.16,,,0.19,Wunderground v.1.15,2013-02-07 18:50:00,
2013-02-07 13:55:00,48.4,47.3,30.01,NNE,21,2.0,5.0,96,0.15,,,0.20,Wunderground v.1.15,2013-02-07 18:55:00,
2013-02-07 14:00:00,48.3,47.2,30.02,NNE,25,2.0,2.0,96,0.14,,,0.21,Wunderground v.1.15,2013-02-07 19:00:00,
2013-02-07 14:05:00,48.4,47.3,30.02,NE,40,1.0,7.0,96,0.19,,,0.23,Wunderground v.1.15,2013-02-07 19:05:00,
2013-02-07 14:15:00,48.3,47.2,30.02,NNE,32,4.0,6.0,96,0.19,,,0.26,Wunderground v.1.15,2013-02-07 19:15:00,
2013-02-07 14:20:00,48.4,47.3,30.02,NE,41,2.0,2.0,96,0.18,,,0.28,Wunderground v.1.15,2013-02-07 19:20:00,
2013-02-07 14:25:00,48.4,47.3,30.02,NE,37,0.0,3.0,96,0.42,,,0.30,Wunderground v.1.15,2013-02-07 19:25:00,
2013-02-07 14:30:00,48.4,47.3,30.01,NNE,21,1.0,3.0,96,0.40,,,0.33,Wunderground v.1.15,2013-02-07 19:30:00,
2013-02-07 14:35:00,48.4,47.3,30.01,NE,35,3.0,3.0,96,0.31,,,0.36,Wunderground v.1.15,2013-02-07 19:35:00,
2013-02-07 14:40:00,48.3,47.2,30.00,NE,35,3.0,3.0,96,0.35,,,0.39,Wunderground v.1.15,2013-02-07 19:40:00,
2013-02-07 14:50:00,48.3,47.2,30.00,NNE,29,2.0,3.0,96,0.25,,,0.44,Wunderground v.1.15,2013-02-07 19:50:00,
2013-02-07 14:55:00,48.4,47.3,30.00,North,11,2.0,7.0,96,0.17,,,0.46,Wunderground v.1.15,2013-02-07 19:55:00,
2013-02-07 15:00:00,48.4,47.3,29.99,NNE,16,2.0,2.0,96,0.35,,,0.48,Wunderground v.1.15,2013-02-07 20:00:00,
2013-02-07 15:05:00,48.4,47.3,29.98,NNE,25,2.0,2.0,96,0.38,,,0.51,Wunderground v.1.15,2013-02-07 20:05:00,
2013-02-07 15:15:00,48.3,47.2,29.98,NNE,31,2.0,5.0,96,0.40,,,0.56,Wunderground v.1.15,2013-02-07 20:15:00,
2013-02-07 15:25:00,48.3,47.2,29.97,North,2,2.0,3.0,96,0.47,,,0.62,Wunderground v.1.15,2013-02-07 20:25:00,
2013-02-07 15:30:00,48.3,47.2,29.97,NNE,21,2.0,2.0,96,0.35,,,0.65,Wunderground v.1.15,2013-02-07 20:30:00,
2013-02-07 15:35:00,48.3,47.2,29.96,NE,51,3.0,3.0,96,0.29,,,0.67,Wunderground v.1.15,2013-02-07 20:35:00,
2013-02-07 15:40:00,48.2,47.1,29.97,NNE,21,3.0,3.0,96,0.20,,,0.69,Wunderground v.1.15,2013-02-07 20:40:00,
2013-02-07 15:45:00,48.1,47.0,29.96,NNE,25,3.0,3.0,96,0.31,,,0.72,Wunderground v.1.15,2013-02-07 20:45:00,
2013-02-07 15:55:00,47.9,46.8,29.96,NNE,25,2.0,3.0,96,0.29,,,0.76,Wunderground v.1.15,2013-02-07 20:55:00,
2013-02-07 16:00:00,47.9,46.8,29.96,North,11,2.0,3.0,96,0.21,,,0.77,Wunderground v.1.15,2013-02-07 21:00:00,
2013-02-07 16:05:00,48.0,46.9,29.97,NNE,28,2.0,3.0,96,0.17,,,0.79,Wunderground v.1.15,2013-02-07 21:05:00,
2013-02-07 16:15:00,47.9,46.8,29.97,NNE,25,2.0,3.0,96,0.25,,,0.85,Wunderground v.1.15,2013-02-07 21:15:00,
2013-02-07 16:20:00,47.8,46.7,29.96,NNE,16,2.0,2.0,96,0.17,,,0.86,Wunderground v.1.15,2013-02-07 21:20:00,
2013-02-07 16:25:00,47.8,46.7,29.96,NNE,30,2.0,2.0,96,0.14,,,0.88,Wunderground v.1.15,2013-02-07 21:25:00,
2013-02-07 16:30:00,47.8,46.7,29.95,NNE,27,2.0,2.0,96,0.21,,,0.90,Wunderground v.1.15,2013-02-07 21:30:00,
2013-02-07 16:40:00,47.8,46.7,29.95,NNE,29,4.0,4.0,96,0.29,,,0.94,Wunderground v.1.15,2013-02-07 21:40:00,
2013-02-07 16:45:00,47.7,46.6,29.94,North,11,3.0,8.0,96,0.28,,,0.96,Wunderground v.1.15,2013-02-07 21:45:00,
2013-02-07 16:50:00,47.6,46.5,29.94,NNE,21,3.0,3.0,96,0.19,,,0.97,Wunderground v.1.15,2013-02-07 21:50:00,
2013-02-07 16:55:00,47.6,46.5,29.94,North,2,3.0,3.0,96,0.10,,,0.98,Wunderground v.1.15,2013-02-07 21:55:00,
2013-02-07 17:00:00,47.6,46.5,29.94,NE,37,2.0,3.0,96,0.09,,,0.98,Wunderground v.1.15,2013-02-07 22:00:00,
2013-02-07 17:05:00,47.5,46.4,29.93,NNE,16,2.0,3.0,96,0.06,,,0.99,Wunderground v.1.15,2013-02-07 22:05:00,
2013-02-07 17:15:00,47.4,46.3,29.93,NNE,26,2.0,2.0,96,0.05,,,0.99,Wunderground v.1.15,2013-02-07 22:15:00,
2013-02-07 17:20:00,47.3,46.2,29.92,North,6,2.0,2.0,96,0.04,,,1.00,Wunderground v.1.15,2013-02-07 22:20:00,
2013-02-07 17:25:00,47.2,46.1,29.92,North,4,2.0,6.0,96,0.04,,,1.00,Wunderground v.1.15,2013-02-07 22:25:00,
2013-02-07 17:35:00,47.1,46.3,29.92,NE,38,3.0,4.0,97,0.10,,,1.02,Wunderground v.1.15,2013-02-07 22:35:00,
2013-02-07 17:40:00,47.1,46.3,29.92,NNE,33,3.0,3.0,97,0.10,,,1.02,Wunderground v.1.15,2013-02-07 22:40:00,
2013-02-07 17:45:00,47.0,46.2,29.92,NE,45,2.0,11.0,97,0.07,,,1.03,Wunderground v.1.15,2013-02-07 22:45:00,
2013-02-07 17:50:00,47.0,46.2,29.91,ENE,61,2.0,2.0,97,0.08,,,1.04,Wunderground v.1.15,2013-02-07 22:50:00,
2013-02-07 17:55:00,46.9,45.8,29.90,ENE,61,3.0,3.0,96,0.14,,,1.05,Wunderground v.1.15,2013-02-07 22:55:00,
2013-02-07 18:00:00,46.9,45.8,29.90,NNE,29,3.0,3.0,96,0.20,,,1.06,Wunderground v.1.15,2013-02-07 23:00:00,
2013-02-07 18:05:00,46.8,45.7,29.89,NNE,31,3.0,5.0,96,0.15,,,1.08,Wunderground v.1.15,2013-02-07 23:05:00,
2013-02-07 18:15:00,46.8,45.7,29.88,NNE,25,3.0,6.0,96,0.16,,,1.10,Wunderground v.1.15,2013-02-07 23:15:00,
2013-02-07 18:20:00,46.8,46.0,29.88,NNE,27,3.0,3.0,97,0.13,,,1.11,Wunderground v.1.15,2013-02-07 23:20:00,
2013-02-07 18:25:00,46.8,46.0,29.87,NNE,16,4.0,6.0,97,0.12,,,1.12,Wunderground v.1.15,2013-02-07 23:25:00,
2013-02-07 18:30:00,46.8,46.0,29.87,NE,49,4.0,4.0,97,0.06,,,1.12,Wunderground v.1.15,2013-02-07 23:30:00,
2013-02-07 18:35:00,46.9,46.1,29.86,NNE,25,3.0,4.0,97,0.05,,,1.13,Wunderground v.1.15,2013-02-07 23:35:00,
2013-02-07 18:45:00,46.9,46.1,29.87,NNE,33,2.0,3.0,97,0.18,,,1.15,Wunderground v.1.15,2013-02-07 23:45:00,
2013-02-07 18:50:00,46.9,46.1,29.87,NNE,16,3.0,9.0,97,0.18,,,1.16,Wunderground v.1.15,2013-02-07 23:50:00,
2013-02-07 18:55:00,47.0,46.2,29.88,NNE,21,4.0,9.0,97,0.19,,,1.17,Wunderground v.1.15,2013-02-07 23:55:00,
2013-02-07 19:00:00,47.0,46.2,29.87,NNE,16,3.0,3.0,97,0.18,,,1.19,Wunderground v.1.15,2013-02-08 00:00:00,
2013-02-07 19:05:00,47.0,46.2,29.87,NNE,21,3.0,3.0,97,0.33,,,1.22,Wunderground v.1.15,2013-02-08 00:05:00,
2013-02-07 19:15:00,47.1,46.3,29.88,NNE,16,3.0,5.0,97,0.40,,,1.28,Wunderground v.1.15,2013-02-08 00:15:00,
2013-02-07 19:20:00,47.1,46.3,29.88,NNE,21,2.0,2.0,97,0.32,,,1.31,Wunderground v.1.15,2013-02-08 00:20:00,
2013-02-07 19:30:00,47.1,46.3,29.89,North,11,3.0,4.0,97,0.32,,,1.37,Wunderground v.1.15,2013-02-08 00:30:00,
2013-02-07 19:35:00,47.1,46.3,29.89,North,11,2.0,4.0,97,0.57,,,1.41,Wunderground v.1.15,2013-02-08 00:35:00,
2013-02-07 19:40:00,47.1,46.3,29.89,NE,53,2.0,2.0,97,0.53,,,1.45,Wunderground v.1.15,2013-02-08 00:40:00,
2013-02-07 19:50:00,47.0,46.2,29.89,North,11,3.0,3.0,97,0.35,,,1.51,Wunderground v.1.15,2013-02-08 00:50:00,
2013-02-07 19:55:00,47.0,46.2,29.89,NNE,21,2.0,4.0,97,0.36,,,1.54,Wunderground v.1.15,2013-02-08 00:55:00,
2013-02-07 20:00:00,46.9,46.1,29.89,NNE,21,2.0,4.0,97,0.41,,,1.59,Wunderground v.1.15,2013-02-08 01:00:00,
2013-02-07 20:05:00,46.8,46.0,29.88,NNE,21,4.0,4.0,97,0.36,,,1.62,Wunderground v.1.15,2013-02-08 01:05:00,
2013-02-07 20:15:00,46.7,45.9,29.89,NE,50,3.0,4.0,97,0.29,,,1.66,Wunderground v.1.15,2013-02-08 01:15:00,
2013-02-07 20:20:00,46.6,45.8,29.90,ENE,57,3.0,3.0,97,0.26,,,1.68,Wunderground v.1.15,2013-02-08 01:20:00,
2013-02-07 20:25:00,46.5,45.7,29.90,NNW,343,2.0,4.0,97,0.43,,,1.71,Wunderground v.1.15,2013-02-08 01:25:00,
2013-02-07 20:30:00,46.4,45.6,29.90,NNE,21,2.0,3.0,97,0.23,,,1.74,Wunderground v.1.15,2013-02-08 01:30:00,
2013-02-07 20:40:00,46.1,45.3,29.90,NNE,21,3.0,4.0,97,0.76,,,1.85,Wunderground v.1.15,2013-02-08 01:40:00,
2013-02-07 20:45:00,45.9,45.1,29.89,NNE,21,4.0,6.0,97,0.37,,,1.88,Wunderground v.1.15,2013-02-08 01:45:00,
2013-02-07 20:50:00,45.7,44.9,29.89,NNE,30,4.0,4.0,97,0.20,,,1.90,Wunderground v.1.15,2013-02-08 01:50:00,
2013-02-07 20:55:00,45.5,44.7,29.88,NE,42,4.0,4.0,97,0.21,,,1.91,Wunderground v.1.15,2013-02-08 01:55:00,
2013-02-07 21:00:00,45.4,44.6,29.87,NNE,21,4.0,4.0,97,0.16,,,1.92,Wunderground v.1.15,2013-02-08 02:00:00,
2013-02-07 21:05:00,45.3,44.5,29.87,NE,41,4.0,4.0,97,0.12,,,1.93,Wunderground v.1.15,2013-02-08 02:05:00,
2013-02-07 21:15:00,45.1,44.3,29.87,NE,40,2.0,9.0,97,0.12,,,1.95,Wunderground v.1.15,2013-02-08 02:15:00,
2013-02-07 21:20:00,45.1,44.3,29.86,NE,50,2.0,2.0,97,0.16,,,1.97,Wunderground v.1.15,2013-02-08 02:20:00,
2013-02-07 21:30:00,45.1,44.3,29.82,NE,40,3.0,3.0,97,0.09,,,1.98,Wunderground v.1.15,2013-02-08 02:30:00,
2013-02-07 21:35:00,45.2,44.4,29.84,North,7,4.0,5.0,97,0.07,,,1.98,Wunderground v.1.15,2013-02-08 02:35:00,
2013-02-07 21:40:00,45.3,44.5,29.87,NNE,21,4.0,4.0,97,0.04,,,1.98,Wunderground v.1.15,2013-02-08 02:40:00,
2013-02-07 21:45:00,45.4,44.6,29.87,NNE,21,3.0,4.0,97,0.00,,,1.98,Wunderground v.1.15,2013-02-08 02:45:00,
2013-02-07 21:50:00,45.4,44.6,29.87,NNE,21,2.0,3.0,97,0.00,,,1.98,Wunderground v.1.15,2013-02-08 02:50:00,
2013-02-07 21:55:00,45.3,44.5,29.88,NNE,33,2.0,8.0,97,0.00,,,1.98,Wunderground v.1.15,2013-02-08 02:55:00,
2013-02-07 22:05:00,45.2,44.4,29.87,NNE,31,2.0,2.0,97,0.00,,,1.98,Wunderground v.1.15,2013-02-08 03:05:00,
2013-02-07 22:15:00,45.0,44.2,29.87,NNE,16,2.0,5.0,97,0.00,,,1.98,Wunderground v.1.15,2013-02-08 03:15:00,
2013-02-07 22:20:00,44.9,44.1,29.87,NNE,21,2.0,2.0,97,0.00,,,1.98,Wunderground v.1.15,2013-02-08 03:20:00,
2013-02-07 22:25:00,44.9,44.1,29.87,North,11,2.0,3.0,97,0.00,,,1.98,Wunderground v.1.15,2013-02-08 03:25:00,
2013-02-07 22:35:00,44.8,44.0,29.86,NNE,16,3.0,3.0,97,0.00,,,1.98,Wunderground v.1.15,2013-02-08 03:35:00,
2013-02-07 22:40:00,44.8,44.0,29.86,NNE,16,2.0,3.0,97,0.00,,,1.98,Wunderground v.1.15,2013-02-08 03:40:00,
2013-02-07 22:45:00,44.7,43.9,29.87,NNE,21,2.0,3.0,97,0.00,,,1.98,Wunderground v.1.15,2013-02-08 03:45:00,
2013-02-07 22:50:00,44.7,43.9,29.87,NNE,21,2.0,2.0,97,0.00,,,1.98,Wunderground v.1.15,2013-02-08 03:50:00,
2013-02-07 22:55:00,44.7,43.9,29.87,NNE,21,2.0,3.0,97,0.00,,,1.98,Wunderground v.1.15,2013-02-08 03:55:00,
2013-02-07 23:00:00,44.7,43.9,29.87,NNE,21,2.0,2.0,97,0.00,,,1.98,Wunderground v.1.15,2013-02-08 04:00:00,
2013-02-07 23:05:00,44.6,43.8,29.87,NNE,31,2.0,2.0,97,0.00,,,1.98,Wunderground v.1.15,2013-02-08 04:05:00,
2013-02-07 23:15:00,44.6,43.8,29.87,NNE,21,1.0,2.0,97,0.00,,,1.98,Wunderground v.1.15,2013-02-08 04:15:00,
2013-02-07 23:20:00,44.5,43.7,29.87,NE,44,2.0,5.0,97,0.00,,,1.98,Wunderground v.1.15,2013-02-08 04:20:00,
2013-02-07 23:25:00,44.4,43.6,29.87,NNW,336,3.0,5.0,97,0.00,,,1.98,Wunderground v.1.15,2013-02-08 04:25:00,
2013-02-07 23:35:00,44.3,43.5,29.88,North,6,2.0,4.0,97,0.00,,,1.98,Wunderground v.1.15,2013-02-08 04:35:00,
2013-02-07 23:40:00,44.2,43.4,29.87,North,3,2.0,2.0,97,0.00,,,1.98,Wunderground v.1.15,2013-02-08 04:40:00,
2013-02-07 23:45:00,44.2,43.4,29.87,NNW,343,3.0,3.0,97,0.00,,,1.98,Wunderground v.1.15,2013-02-08 04:45:00,
2013-02-07 23:50:00,44.2,43.4,29.87,NNE,26,3.0,4.0,97,0.00,,,1.98,Wunderground v.1.15,2013-02-08 04:50:00,
2013-02-07 23:55:00,44.1,43.3,29.87,NE,36,3.0,7.0,97,0.00,,,1.98,Wunderground v.1.15,2013-02-08 04:55:00,